DW3838 Weather Reports


Display with metric or nautical units.
time (UTC)temp
F
wind
direction
speed
MPH
gust
MPH
rain 1hr
in
rain 24hr
in
rain mn
in
humidity
%
barometer
mb
20260503204526 60 224 1.0 5.0 0.00 0.00 0.00 70 1013.0
20260503203020 59 217 0.0 0.0 0.00 0.00 0.00 74 1013.1
20260503201526 59 211 1.0 6.0 0.00 0.00 0.00 77 1013.2
20260503200014 58 192 0.0 5.0 0.00 0.00 0.00 77 1013.3
20260503194513 58 177 0.0 6.0 0.00 0.00 0.00 76 1013.4
20260503193013 58 161 0.0 3.0 0.00 0.00 0.00 75 1013.5
20260503191514 57 209 0.0 2.0 0.00 0.00 0.00 73 1013.5
20260503190017 57 196 0.0 0.0 0.00 0.00 0.00 79 1013.4
20260503184509 56 196 0.0 5.0 0.00 0.00 0.00 79 1013.5
20260503183014 57 206 0.0 5.0 0.00 0.00 0.00 78 1013.5
20260503181516 57 220 1.0 7.0 0.00 0.00 0.00 78 1013.5
20260503180005 56 183 0.0 4.0 0.00 0.00 0.00 78 1013.5
20260503174501 56 317 0.0 5.0 0.00 0.00 0.00 80 1013.4
20260503173103 55 160 0.0 2.0 0.00 0.00 0.00 81 1013.3
20260503171556 55 322 0.0 0.0 0.00 0.00 0.00 83 1013.2
20260503081515 49 216 0.0 0.0 0.00 0.00 0.00 87 1011.8
20260503071506 50 216 0.0 0.0 0.00 0.00 0.00 86 1011.9
20260503054602 51 216 0.0 0.0 0.00 0.00 0.00 86 1012.3
20260503053100 51 216 0.0 0.0 0.00 0.00 0.00 86 1012.3
20260503051601 52 216 0.0 0.0 0.00 0.00 0.00 86 1012.4
20260503050059 52 216 0.0 0.0 0.00 0.00 0.00 86 1012.4
20260503044626 52 216 0.0 0.0 0.00 0.00 0.00 86 1012.3
20260503043058 52 216 0.0 0.0 0.00 0.00 0.00 86 1012.3
20260503041559 52 216 0.0 0.0 0.00 0.00 0.00 86 1012.1
20260503040105 52 198 0.0 0.0 0.00 0.00 0.00 86 1011.9
20260503034600 52 183 0.0 0.0 0.00 0.00 0.00 86 1011.8
20260503033055 52 179 0.0 0.0 0.00 0.00 0.00 86 1011.6
20260503031555 53 204 0.0 1.0 0.00 0.00 0.00 85 1011.4
20260503030105 53 236 0.0 0.0 0.00 0.00 0.00 85 1011.3
20260503024559 53 214 0.0 4.0 0.00 0.00 0.00 85 1011.4
20260503023059 53 196 0.0 5.0 0.00 0.00 0.00 85 1011.4
20260503021553 54 253 0.0 3.0 0.00 0.00 0.00 84 1011.4
20260503014555 55 255 2.0 8.0 0.00 0.00 0.00 82 1011.5
20260503013057 55 223 0.0 6.0 0.00 0.00 0.00 82 1011.7
20260503011553 55 159 1.0 7.0 0.00 0.00 0.00 81 1011.7
20260503010049 56 245 2.0 9.0 0.00 0.00 0.00 80 1011.7
20260503004553 57 200 1.0 6.0 0.00 0.00 0.00 79 1011.7
20260503003050 57 256 0.0 8.0 0.00 0.00 0.00 79 1011.8
20260503001551 58 92 0.0 8.0 0.00 0.00 0.00 79 1011.8
20260503000049 57 170 2.0 8.0 0.00 0.00 0.00 78 1011.9
20260502234554 58 144 4.0 10.0 0.00 0.00 0.00 77 1011.9
20260502233042 59 184 3.0 8.0 0.00 0.00 0.00 76 1012.2
20260502231542 60 212 2.0 9.0 0.00 0.00 0.00 77 1012.3
20260502230042 60 233 2.0 6.0 0.00 0.00 0.00 76 1012.4
20260502224539 59 171 0.0 5.0 0.00 0.00 0.00 77 1012.5
20260502223041 59 101 0.0 7.0 0.00 0.00 0.00 80 1012.7
20260502221535 58 148 0.0 5.0 0.00 0.00 0.00 81 1012.9
20260502220039 58 171 1.0 7.0 0.00 0.00 0.00 82 1013.0
20260502214535 57 217 0.0 7.0 0.00 0.00 0.00 83 1013.2
20260502213028 57 215 0.0 4.0 0.00 0.00 0.00 84 1013.2
20260502211533 56 124 0.0 4.0 0.00 0.00 0.00 85 1013.4
20260502210027 56 179 0.0 4.0 0.00 0.00 0.00 85 1013.5